Home > Weather > Austin > Past weeks

Flag for USA Past Weather in Austin, Texas, USA — Yesterday and Last 2 Weeks

Now
76 °F

Passing clouds.


Feels Like: 75 °F
Forecast: 77 / 91 °F
Wind: No wind

Location: Camp Mabry / Austin City

Current Time: Jul 28, 2016 at 7:19:47 AM

Latest Report: Jul 28, 2016 at 6:51 AM


Visibility: 9 mi

Pressure: 29.97 "Hg

Humidity: 94%

Dew Point: 74 °F

Location of AustinLocation

Past Weather in Austin — Graph

°F

Austin Temperature Yesterday

Maximum temperature yesterday: 91 °F (at 3:51 PM)
Minimum temperature yesterday: 74 °F (at 7:57 AM)
Average temperature yesterday: 79 °F

High & Low Weather Summary for the Past Weeks

 TemperatureHumidityPressure
High101 °F (Jul 15, 3:51 PM)100% (Jul 26, 1:51 AM)30.17 "Hg (Jul 26, 1:51 AM)
Low74 °F (Jul 27, 7:57 AM)32% (Jul 15, 5:51 PM)29.79 "Hg (Jul 25, 5:51 PM)
Average86 °F65%29.98 "Hg
* Reported Jul 13 5:51 AM — Jul 28 5:51 AM, Austin, Weather by CustomWeather, © 2016

Note: Actual official high and low records may vary slightly from our data, if they occured in-between our weather recording intervals... More about our weather records

Advertising

Austin Weather History for the Previous 24 Hours

Scroll right to see more
 ConditionsComfort  
Time TempWeatherWind HumidityBarometerVisibility
5:51 AM
Thu, Jul 28
77 °FClear.No wind90%29.95 "Hg10 mi
4:51 AM77 °FPassing clouds.No wind90%29.95 "Hg10 mi
3:51 AM77 °FPassing clouds.No wind90%29.94 "Hg10 mi
2:51 AM76 °FPassing clouds.No wind91%29.94 "Hg10 mi
1:51 AM76 °FClear.No wind91%29.94 "Hg10 mi
12:51 AM76 °FClear.No wind88%29.96 "Hg10 mi
11:51 PM
Wed, Jul 27
77 °FClear.3 mph85%29.95 "Hg10 mi
10:51 PM78 °FClear.3 mph82%29.94 "Hg10 mi
9:51 PM79 °FClear.No wind77%29.93 "Hg10 mi
8:51 PM80 °FSunny.5 mph74%29.90 "Hg10 mi
7:51 PM84 °FSunny.6 mph63%29.88 "Hg10 mi
6:51 PM87 °FSunny.3 mph57%29.90 "Hg10 mi
5:51 PM83 °FPassing clouds.8 mph65%29.89 "Hg10 mi
4:51 PM87 °FMore clouds than sun.14 mph63%29.90 "Hg10 mi
3:51 PM91 °FSunny.6 mph57%29.90 "Hg10 mi
2:51 PM87 °FScattered clouds.8 mph72%29.92 "Hg10 mi
1:51 PM85 °FSunny.No wind80%29.94 "Hg10 mi
12:51 PM78 °FPassing clouds.No wind96%29.97 "Hg9 mi
11:51 AM76 °FLight rain. Fog.3 mph97%29.99 "Hg6 mi
11:02 AM75 °FRain. Fog.No wind100%30.03 "Hg3 mi
10:04 AM74 °FThunderstorms. Fog.No wind100%30.02 "Hg2 mi
9:51 AM74 °FThunderstorms. Fog.No wind97%29.98 "Hg3 mi
8:58 AM75 °FThunderstorms. Cloudy.3 mph96%30.01 "Hg7 mi
7:57 AM74 °FThunderstorms. Fog.3 mph100%30.00 "Hg3 mi
Weather by CustomWeather, © 2016

See weather overviewHow to use our weather pages